| time (UTC) | temp C | wind direction | speed KPH | gust KPH | rain 1hr cm | rain 24hr cm | rain mn cm | humidity % | barometer mb |
| 20260505152549 | 15 | 135 | 1.6 | 3.2 | 0.00 | 1.09 | 0.46 | 71 | 1015.0 |
| 20260505152050 | 15 | 136 | 1.6 | 3.2 | 0.00 | 1.09 | 0.46 | 71 | 1015.0 |
| 20260505151549 | 15 | 129 | 3.2 | 4.8 | 0.00 | 1.09 | 0.46 | 71 | 1015.0 |
| 20260505151048 | 15 | 135 | 3.2 | 4.8 | 0.00 | 1.09 | 0.46 | 71 | 1015.0 |
| 20260505150548 | 15 | 158 | 1.6 | 3.2 | 0.00 | 1.09 | 0.46 | 71 | 1015.1 |
| 20260505140548 | 15 | 158 | 1.6 | 4.8 | 0.00 | 1.12 | 0.46 | 69 | 1015.6 |
| 20260505124549 | 13 | 135 | 4.8 | 8.0 | 0.03 | 1.12 | 0.46 | 73 | 1016.0 |
| 20260505124048 | 13 | 150 | 1.6 | 3.2 | 0.03 | 1.12 | 0.46 | 73 | 1016.0 |
| 20260505123548 | 13 | 121 | 4.8 | 9.7 | 0.03 | 1.12 | 0.46 | 72 | 1016.0 |
| 20260505123047 | 13 | 124 | 3.2 | 8.0 | 0.03 | 1.12 | 0.46 | 71 | 1016.0 |
| 20260505122549 | 13 | 129 | 3.2 | 4.8 | 0.03 | 1.12 | 0.46 | 72 | 1016.0 |
| 20260505122048 | 13 | 158 | 0.0 | 1.6 | 0.03 | 1.12 | 0.46 | 72 | 1016.1 |
| 20260505121548 | 13 | 158 | 1.6 | 3.2 | 0.03 | 1.12 | 0.46 | 73 | 1016.1 |
| 20260505121047 | 13 | 135 | 3.2 | 4.8 | 0.03 | 1.12 | 0.46 | 73 | 1016.1 |
| 20260505120549 | 13 | 141 | 1.6 | 3.2 | 0.03 | 1.12 | 0.46 | 73 | 1016.0 |
| 20260505120048 | 13 | 135 | 1.6 | 1.6 | 0.00 | 1.09 | 0.43 | 73 | 1016.1 |
| 20260505115549 | 13 | 158 | 1.6 | 3.2 | 0.00 | 1.09 | 0.43 | 72 | 1016.1 |
| 20260505115049 | 13 | 135 | 3.2 | 4.8 | 0.00 | 1.09 | 0.43 | 72 | 1016.2 |
| 20260505114548 | 13 | 145 | 1.6 | 4.8 | 0.00 | 1.09 | 0.43 | 72 | 1016.2 |
| 20260505114047 | 13 | 143 | 1.6 | 3.2 | 0.00 | 1.09 | 0.43 | 73 | 1016.3 |
| 20260505113549 | 12 | 135 | 3.2 | 4.8 | 0.00 | 1.09 | 0.43 | 72 | 1016.2 |
| 20260505113048 | 13 | 116 | 3.2 | 4.8 | 0.00 | 1.09 | 0.43 | 72 | 1016.4 |
| 20260505112548 | 13 | 137 | 1.6 | 4.8 | 0.00 | 1.09 | 0.43 | 71 | 1016.3 |
| 20260505112047 | 13 | 139 | 1.6 | 3.2 | 0.00 | 1.09 | 0.43 | 71 | 1016.4 |
| 20260505111548 | 13 | 135 | 1.6 | 3.2 | 0.00 | 1.09 | 0.43 | 71 | 1016.5 |
| 20260505111048 | 13 | 135 | 1.6 | 1.6 | 0.00 | 1.09 | 0.43 | 71 | 1016.5 |
| 20260505110547 | 13 | 136 | 3.2 | 4.8 | 0.00 | 1.12 | 0.43 | 71 | 1016.5 |
| 20260505102047 | 12 | 148 | 1.6 | 3.2 | 0.00 | 1.12 | 0.43 | 79 | 1016.7 |
| 20260505101549 | 12 | 158 | 3.2 | 4.8 | 0.00 | 1.12 | 0.43 | 80 | 1016.7 |
| 20260505101048 | 12 | 135 | 3.2 | 4.8 | 0.00 | 1.12 | 0.43 | 82 | 1016.7 |
| 20260505100547 | 12 | 135 | 1.6 | 4.8 | 0.00 | 1.12 | 0.43 | 82 | 1016.7 |
| 20260505100049 | 11 | 158 | 4.8 | 4.8 | 0.00 | 1.12 | 0.43 | 82 | 1016.7 |
| 20260505095548 | 11 | 143 | 0.0 | 1.6 | 0.00 | 1.12 | 0.43 | 82 | 1016.7 |
| 20260505095048 | 11 | 137 | 3.2 | 4.8 | 0.00 | 1.12 | 0.43 | 82 | 1016.7 |
| 20260505094549 | 11 | 135 | 0.0 | 3.2 | 0.00 | 1.12 | 0.43 | 82 | 1016.6 |
| 20260505094048 | 11 | 143 | 1.6 | 3.2 | 0.00 | 1.12 | 0.43 | 81 | 1016.6 |
| 20260505093548 | 11 | 112 | 1.6 | 3.2 | 0.00 | 1.12 | 0.43 | 81 | 1016.7 |
| 20260505093049 | 11 | 135 | 3.2 | 4.8 | 0.00 | 1.12 | 0.43 | 81 | 1016.7 |
| 20260505092548 | 11 | 149 | 3.2 | 4.8 | 0.00 | 1.12 | 0.43 | 81 | 1016.7 |
| 20260505092048 | 11 | 135 | 3.2 | 4.8 | 0.00 | 1.12 | 0.43 | 82 | 1016.6 |
| 20260505091548 | 11 | 131 | 1.6 | 3.2 | 0.00 | 1.12 | 0.43 | 82 | 1016.5 |
| 20260505091049 | 11 | 90 | 1.6 | 3.2 | 0.00 | 1.12 | 0.43 | 82 | 1016.4 |
| 20260505090548 | 11 | 187 | 1.6 | 3.2 | 0.00 | 1.12 | 0.43 | 81 | 1016.5 |
| 20260505090048 | 11 | 225 | 1.6 | 1.6 | 0.00 | 1.12 | 0.43 | 81 | 1016.5 |
| 20260505085549 | 11 | 180 | 1.6 | 1.6 | 0.00 | 1.12 | 0.43 | 81 | 1016.4 |
| 20260505085048 | 11 | 180 | 1.6 | 3.2 | 0.00 | 1.12 | 0.43 | 81 | 1016.3 |
| 20260505084549 | 11 | 180 | 0.0 | 1.6 | 0.00 | 1.12 | 0.43 | 80 | 1016.3 |
| 20260505084048 | 10 | 226 | 3.2 | 4.8 | 0.00 | 1.12 | 0.43 | 80 | 1016.2 |
| 20260505083548 | 10 | 244 | 3.2 | 4.8 | 0.00 | 1.12 | 0.43 | 80 | 1016.2 |
| 20260505083049 | 10 | 270 | 3.2 | 4.8 | 0.00 | 1.12 | 0.43 | 79 | 1016.2 |
| 20260505082548 | 10 | 230 | 3.2 | 4.8 | 0.00 | 1.12 | 0.43 | 79 | 1016.2 |
| 20260505082048 | 10 | 243 | 3.2 | 8.0 | 0.00 | 1.12 | 0.43 | 80 | 1016.2 |
| 20260505081548 | 10 | 270 | 3.2 | 4.8 | 0.00 | 1.12 | 0.43 | 80 | 1016.2 |
| 20260505081049 | 10 | 270 | 3.2 | 4.8 | 0.00 | 1.12 | 0.43 | 80 | 1016.2 |
| 20260505080548 | 10 | 270 | 8.0 | 9.7 | 0.00 | 1.12 | 0.43 | 79 | 1016.2 |
| 20260505080048 | 10 | 270 | 4.8 | 4.8 | 0.00 | 1.12 | 0.43 | 79 | 1016.2 |
| 20260505075548 | 10 | 270 | 8.0 | 9.7 | 0.00 | 1.12 | 0.43 | 79 | 1016.2 |
| 20260505075048 | 10 | 270 | 4.8 | 9.7 | 0.00 | 1.12 | 0.43 | 80 | 1016.2 |
| 20260505074548 | 10 | 268 | 8.0 | 9.7 | 0.00 | 1.12 | 0.43 | 80 | 1016.3 |
| 20260505074049 | 10 | 270 | 4.8 | 4.8 | 0.00 | 1.12 | 0.43 | 80 | 1016.2 |
| 20260505073548 | 10 | 270 | 4.8 | 4.8 | 0.00 | 1.12 | 0.43 | 79 | 1016.2 |
| 20260505073048 | 10 | 270 | 8.0 | 11.3 | 0.00 | 1.12 | 0.43 | 78 | 1016.2 |
| 20260505072547 | 10 | 270 | 8.0 | 11.3 | 0.00 | 1.12 | 0.43 | 78 | 1016.2 |
| 20260505072048 | 10 | 254 | 4.8 | 8.0 | 0.00 | 1.12 | 0.43 | 78 | 1016.2 |
| 20260505071548 | 10 | 270 | 9.7 | 11.3 | 0.00 | 1.12 | 0.43 | 79 | 1016.2 |
| 20260505071049 | 10 | 270 | 9.7 | 11.3 | 0.00 | 1.12 | 0.43 | 81 | 1016.2 |
| 20260505070547 | 10 | 270 | 3.2 | 9.7 | 0.00 | 1.12 | 0.43 | 81 | 1016.2 |
| 20260505070049 | 10 | 270 | 3.2 | 4.8 | 0.00 | 1.12 | 0.43 | 81 | 1016.2 |
| 20260505065548 | 10 | 225 | 0.0 | 1.6 | 0.00 | 1.12 | 0.43 | 82 | 1016.3 |
| 20260505065047 | 9 | 225 | 0.0 | 1.6 | 0.00 | 1.12 | 0.43 | 82 | 1016.3 |
| 20260505064549 | 9 | 229 | 1.6 | 3.2 | 0.00 | 1.12 | 0.43 | 81 | 1016.2 |
| 20260505064048 | 9 | 180 | 1.6 | 4.8 | 0.00 | 1.12 | 0.43 | 81 | 1016.3 |
| 20260505063547 | 9 | 247 | 4.8 | 9.7 | 0.00 | 1.12 | 0.43 | 81 | 1016.4 |
| 20260505063049 | 9 | 216 | 3.2 | 9.7 | 0.00 | 1.12 | 0.43 | 81 | 1016.3 |
| 20260505062548 | 9 | 278 | 3.2 | 9.7 | 0.00 | 1.12 | 0.43 | 82 | 1016.3 |
| 20260505062048 | 9 | 270 | 3.2 | 4.8 | 0.00 | 1.12 | 0.43 | 83 | 1016.3 |
| 20260505061547 | 9 | 303 | 4.8 | 4.8 | 0.00 | 1.12 | 0.43 | 82 | 1016.3 |
| 20260505061049 | 9 | 282 | 4.8 | 9.7 | 0.00 | 1.12 | 0.43 | 82 | 1016.4 |
| 20260505060548 | 9 | 270 | 4.8 | 4.8 | 0.00 | 1.12 | 0.43 | 82 | 1016.2 |
| 20260505060048 | 8 | 225 | 3.2 | 4.8 | 0.00 | 1.12 | 0.43 | 82 | 1016.4 |
| 20260505055547 | 8 | 244 | 4.8 | 9.7 | 0.00 | 1.12 | 0.43 | 82 | 1016.4 |
| 20260505055047 | 8 | 270 | 4.8 | 9.7 | 0.00 | 1.12 | 0.43 | 82 | 1016.5 |
| 20260505054549 | 8 | 270 | 4.8 | 9.7 | 0.00 | 1.12 | 0.43 | 82 | 1016.5 |
| 20260505054048 | 8 | 296 | 3.2 | 4.8 | 0.00 | 1.12 | 0.43 | 82 | 1016.4 |
| 20260505053547 | 8 | 270 | 8.0 | 9.7 | 0.00 | 1.12 | 0.43 | 83 | 1016.5 |
| 20260505053047 | 8 | 270 | 1.6 | 4.8 | 0.03 | 1.12 | 0.43 | 84 | 1016.5 |
| 20260505052548 | 8 | 270 | 3.2 | 4.8 | 0.03 | 1.12 | 0.43 | 85 | 1016.6 |
| 20260505052048 | 8 | 237 | 3.2 | 4.8 | 0.05 | 1.12 | 0.43 | 88 | 1016.6 |
| 20260505051547 | 9 | 270 | 3.2 | 4.8 | 0.10 | 1.12 | 0.43 | 90 | 1016.5 |
| 20260505051049 | 9 | 241 | 1.6 | 4.8 | 0.10 | 1.12 | 0.43 | 91 | 1016.6 |
| 20260505050548 | 9 | 273 | 1.6 | 4.8 | 0.10 | 1.12 | 0.43 | 92 | 1016.7 |
| 20260505041548 | 9 | 270 | 0.0 | 0.0 | 0.13 | 1.02 | 0.33 | 91 | 1016.9 |
| 20260505041047 | 9 | 270 | 0.0 | 0.0 | 0.15 | 1.02 | 0.33 | 91 | 1016.9 |
| 20260505040549 | 9 | 270 | 1.6 | 3.2 | 0.15 | 1.02 | 0.33 | 91 | 1017.0 |
| 20260505035552 | 9 | 199 | 1.6 | 8.0 | 0.13 | 0.97 | 0.28 | 91 | 1017.0 |
| 20260505035052 | 9 | 163 | 1.6 | 3.2 | 0.13 | 0.97 | 0.28 | 91 | 1017.2 |
| 20260505034551 | 9 | 270 | 0.0 | 0.0 | 0.15 | 0.97 | 0.28 | 91 | 1017.2 |
| 20260505034052 | 9 | 270 | 1.6 | 1.6 | 0.13 | 0.94 | 0.23 | 91 | 1017.3 |
| 20260505033553 | 10 | 256 | 3.2 | 8.0 | 0.15 | 0.94 | 0.23 | 91 | 1017.2 |
| 20260505033052 | 10 | 270 | 4.8 | 4.8 | 0.13 | 0.89 | 0.20 | 91 | 1017.2 |
| 20260505032552 | 10 | 270 | 3.2 | 4.8 | 0.13 | 0.89 | 0.20 | 90 | 1017.2 |
| 20260505032051 | 10 | 255 | 3.2 | 9.7 | 0.15 | 0.89 | 0.20 | 90 | 1017.2 |
| 20260505031553 | 10 | 270 | 3.2 | 4.8 | 0.18 | 0.89 | 0.20 | 90 | 1017.2 |
| 20260505031052 | 10 | 239 | 3.2 | 4.8 | 0.15 | 0.86 | 0.18 | 89 | 1017.1 |
| 20260505030552 | 9 | 270 | 8.0 | 9.7 | 0.15 | 0.86 | 0.18 | 88 | 1017.3 |
| 20260505030051 | 10 | 270 | 4.8 | 8.0 | 0.13 | 0.84 | 0.15 | 88 | 1017.3 |
| 20260505025552 | 10 | 287 | 3.2 | 4.8 | 0.13 | 0.84 | 0.15 | 88 | 1017.4 |
| 20260505025052 | 10 | 270 | 1.6 | 8.0 | 0.13 | 0.84 | 0.15 | 88 | 1017.3 |
| 20260505024553 | 10 | 270 | 3.2 | 4.8 | 0.10 | 0.81 | 0.13 | 88 | 1017.4 |
| 20260505024052 | 10 | 265 | 3.2 | 9.7 | 0.10 | 0.81 | 0.13 | 89 | 1017.4 |
| 20260505023552 | 10 | 270 | 3.2 | 4.8 | 0.05 | 0.79 | 0.10 | 89 | 1017.3 |
| 20260505023052 | 10 | 304 | 3.2 | 4.8 | 0.05 | 0.79 | 0.10 | 90 | 1017.3 |
| 20260505022552 | 10 | 270 | 3.2 | 4.8 | 0.05 | 0.79 | 0.10 | 90 | 1017.3 |
| 20260505022051 | 10 | 242 | 1.6 | 3.2 | 0.03 | 0.76 | 0.05 | 91 | 1017.3 |
| 20260505021552 | 10 | 270 | 3.2 | 4.8 | 0.00 | 0.71 | 0.03 | 91 | 1017.3 |
| 20260505021052 | 10 | 270 | 1.6 | 4.8 | 0.00 | 0.71 | 0.03 | 91 | 1017.3 |
| 20260505020551 | 10 | 270 | 3.2 | 9.7 | 0.00 | 0.71 | 0.03 | 91 | 1017.4 |
| 20260505020052 | 10 | 225 | 1.6 | 1.6 | 0.00 | 0.71 | 0.03 | 90 | 1017.4 |
| 20260505015552 | 10 | 257 | 1.6 | 1.6 | 0.00 | 0.71 | 0.03 | 90 | 1017.4 |
| 20260505015051 | 10 | 258 | 0.0 | 1.6 | 0.00 | 0.71 | 0.03 | 90 | 1017.2 |
| 20260505014552 | 10 | 180 | 0.0 | 1.6 | 0.00 | 0.71 | 0.03 | 89 | 1017.3 |
| 20260505014052 | 10 | 135 | 0.0 | 0.0 | 0.00 | 0.71 | 0.03 | 88 | 1017.2 |
| 20260505013553 | 10 | 135 | 0.0 | 0.0 | 0.00 | 0.71 | 0.03 | 87 | 1017.2 |
| 20260505013053 | 10 | 135 | 1.6 | 3.2 | 0.00 | 0.71 | 0.03 | 86 | 1017.3 |
| 20260505012554 | 10 | 315 | 0.0 | 0.0 | 0.00 | 0.71 | 0.03 | 86 | 1017.3 |
| 20260505012053 | 10 | 315 | 0.0 | 1.6 | 0.00 | 0.71 | 0.03 | 85 | 1017.4 |
| 20260505011553 | 10 | 275 | 1.6 | 3.2 | 0.00 | 0.71 | 0.03 | 86 | 1017.4 |
| 20260505011054 | 10 | 270 | 8.0 | 9.7 | 0.00 | 0.71 | 0.03 | 89 | 1017.5 |
| 20260505010554 | 10 | 230 | 9.7 | 12.9 | 0.00 | 0.71 | 0.03 | 90 | 1017.6 |
| 20260505010053 | 10 | 248 | 8.0 | 11.3 | 0.00 | 0.71 | 0.03 | 91 | 1017.6 |
| 20260505005553 | 10 | 186 | 1.6 | 4.8 | 0.00 | 0.71 | 0.03 | 91 | 1017.8 |
| 20260505005054 | 10 | 270 | 1.6 | 4.8 | 0.00 | 0.71 | 0.03 | 90 | 1017.8 |
| 20260505004554 | 10 | 281 | 1.6 | 3.2 | 0.00 | 0.71 | 0.03 | 90 | 1018.0 |
| 20260505004053 | 10 | 180 | 0.0 | 1.6 | 0.00 | 0.71 | 0.03 | 89 | 1018.1 |
| 20260505003553 | 10 | 225 | 1.6 | 3.2 | 0.00 | 0.71 | 0.03 | 89 | 1018.2 |
| 20260505003054 | 10 | 180 | 1.6 | 1.6 | 0.00 | 0.71 | 0.03 | 89 | 1018.4 |
| 20260505002554 | 10 | 269 | 3.2 | 4.8 | 0.00 | 0.71 | 0.03 | 89 | 1018.5 |
| 20260505002053 | 10 | 270 | 3.2 | 4.8 | 0.00 | 0.71 | 0.03 | 89 | 1018.7 |
| 20260505001554 | 10 | 260 | 4.8 | 8.0 | 0.00 | 0.71 | 0.03 | 90 | 1018.9 |
| 20260505001054 | 10 | 235 | 4.8 | 8.0 | 0.00 | 0.71 | 0.03 | 90 | 1019.0 |
| 20260505000553 | 10 | 270 | 3.2 | 4.8 | 0.03 | 0.71 | 0.03 | 90 | 1018.9 |
| 20260505000053 | 10 | 270 | 3.2 | 4.8 | 0.03 | 0.71 | 0.03 | 91 | 1019.1 |
| 20260504235554 | 10 | 307 | 3.2 | 9.7 | 0.03 | 0.71 | 0.03 | 92 | 1019.1 |
| 20260504235054 | 10 | 319 | 4.8 | 9.7 | 0.03 | 0.71 | 0.03 | 93 | 1019.1 |
| 20260504234553 | 10 | 270 | 4.8 | 9.7 | 0.03 | 0.71 | 0.03 | 93 | 1019.2 |
| 20260504234053 | 10 | 270 | 1.6 | 3.2 | 0.03 | 0.71 | 0.03 | 93 | 1019.3 |
| 20260504233554 | 10 | 270 | 4.8 | 9.7 | 0.03 | 0.71 | 0.03 | 94 | 1019.4 |
| 20260504233054 | 10 | 258 | 4.8 | 4.8 | 0.03 | 0.71 | 0.03 | 94 | 1019.4 |
| 20260504232553 | 10 | 257 | 1.6 | 4.8 | 0.03 | 0.71 | 0.03 | 94 | 1019.4 |
| 20260504232054 | 10 | 270 | 0.0 | 1.6 | 0.03 | 0.71 | 0.03 | 93 | 1019.6 |
| 20260504231554 | 10 | 310 | 1.6 | 3.2 | 0.03 | 0.71 | 0.03 | 93 | 1019.6 |
| 20260504231053 | 10 | 180 | 1.6 | 3.2 | 0.03 | 0.71 | 0.03 | 93 | 1019.7 |
| 20260504230554 | 10 | 138 | 3.2 | 4.8 | 0.00 | 0.69 | 0.00 | 92 | 1019.7 |
| 20260504230054 | 10 | 135 | 1.6 | 3.2 | 0.00 | 0.69 | 0.00 | 92 | 1019.7 |
| 20260504225554 | 10 | 225 | 1.6 | 4.8 | 0.00 | 0.69 | 0.00 | 92 | 1019.7 |
| 20260504225054 | 10 | 143 | 4.8 | 4.8 | 0.00 | 0.69 | 0.00 | 91 | 1019.8 |
| 20260504224554 | 10 | 180 | 1.6 | 3.2 | 0.00 | 0.69 | 0.00 | 91 | 1019.8 |
| 20260504224053 | 10 | 135 | 1.6 | 1.6 | 0.00 | 0.69 | 0.00 | 90 | 1019.9 |
| 20260504223554 | 10 | 135 | 1.6 | 3.2 | 0.00 | 0.69 | 0.00 | 90 | 1019.9 |
| 20260504223053 | 10 | 315 | 1.6 | 1.6 | 0.00 | 0.69 | 0.00 | 90 | 1019.9 |
| 20260504222554 | 10 | 315 | 0.0 | 0.0 | 0.00 | 0.69 | 0.00 | 90 | 1020.0 |
| 20260504222054 | 10 | 315 | 0.0 | 1.6 | 0.00 | 0.69 | 0.00 | 90 | 1020.0 |
| 20260504221553 | 10 | 270 | 3.2 | 4.8 | 0.00 | 0.69 | 0.00 | 90 | 1020.0 |
| 20260504221053 | 10 | 273 | 8.0 | 9.7 | 0.00 | 0.69 | 0.00 | 91 | 1020.2 |
| 20260504220553 | 10 | 270 | 4.8 | 9.7 | 0.00 | 0.69 | 0.00 | 91 | 1020.2 |
| 20260504220054 | 10 | 270 | 4.8 | 8.0 | 0.00 | 0.69 | 0.00 | 91 | 1020.5 |
| 20260504215554 | 10 | 230 | 4.8 | 11.3 | 0.05 | 0.69 | 0.69 | 91 | 1020.6 |
| 20260504215054 | 10 | 270 | 8.0 | 9.7 | 0.05 | 0.69 | 0.69 | 91 | 1020.7 |
| 20260504214553 | 10 | 253 | 4.8 | 9.7 | 0.05 | 0.69 | 0.69 | 91 | 1020.8 |
| 20260504214054 | 10 | 270 | 3.2 | 9.7 | 0.05 | 0.69 | 0.69 | 91 | 1020.9 |
| 20260504213553 | 10 | 263 | 3.2 | 4.8 | 0.05 | 0.69 | 0.69 | 91 | 1021.0 |
| 20260504213054 | 10 | 225 | 1.6 | 1.6 | 0.10 | 0.69 | 0.69 | 90 | 1021.0 |
| 20260504212554 | 10 | 180 | 0.0 | 0.0 | 0.10 | 0.69 | 0.69 | 90 | 1021.2 |
| 20260504212053 | 10 | 180 | 0.0 | 1.6 | 0.05 | 0.66 | 0.66 | 90 | 1021.2 |
| 20260504211554 | 10 | 180 | 1.6 | 4.8 | 0.05 | 0.66 | 0.66 | 90 | 1021.2 |
| 20260504211053 | 10 | 180 | 0.0 | 0.0 | 0.05 | 0.66 | 0.66 | 90 | 1021.2 |
| 20260504210553 | 10 | 180 | 3.2 | 9.7 | 0.05 | 0.66 | 0.66 | 90 | 1021.3 |
| 20260504210053 | 10 | 158 | 4.8 | 9.7 | 0.10 | 0.64 | 0.64 | 91 | 1021.2 |
| 20260504205553 | 10 | 245 | 1.6 | 3.2 | 0.10 | 0.64 | 0.64 | 91 | 1021.2 |
| 20260504205054 | 10 | 270 | 8.0 | 11.3 | 0.10 | 0.64 | 0.64 | 93 | 1021.2 |
| 20260504204553 | 10 | 208 | 1.6 | 4.8 | 0.13 | 0.64 | 0.64 | 93 | 1021.2 |
| 20260504204053 | 10 | 225 | 1.6 | 1.6 | 0.13 | 0.64 | 0.64 | 93 | 1021.2 |
| 20260504203553 | 10 | 221 | 3.2 | 4.8 | 0.15 | 0.64 | 0.64 | 93 | 1021.4 |
| 20260504203053 | 10 | 239 | 1.6 | 4.8 | 0.13 | 0.61 | 0.61 | 93 | 1021.3 |
| 20260504202554 | 10 | 254 | 3.2 | 4.8 | 0.15 | 0.61 | 0.61 | 93 | 1021.3 |
| 20260504202053 | 10 | 214 | 1.6 | 3.2 | 0.15 | 0.61 | 0.61 | 93 | 1021.3 |
| 20260504201553 | 10 | 206 | 0.0 | 1.6 | 0.15 | 0.61 | 0.61 | 93 | 1021.3 |
| 20260504201054 | 10 | 219 | 1.6 | 3.2 | 0.15 | 0.61 | 0.61 | 93 | 1021.3 |
| 20260504200554 | 10 | 217 | 1.6 | 3.2 | 0.15 | 0.61 | 0.61 | 93 | 1021.3 |
| 20260504200054 | 10 | 180 | 0.0 | 1.6 | 0.13 | 0.53 | 0.53 | 92 | 1021.4 |
| 20260504195553 | 10 | 180 | 0.0 | 1.6 | 0.13 | 0.53 | 0.53 | 92 | 1021.4 |
| 20260504195054 | 10 | 180 | 0.0 | 0.0 | 0.13 | 0.53 | 0.53 | 92 | 1021.3 |
| 20260504194554 | 10 | 180 | 0.0 | 0.0 | 0.10 | 0.51 | 0.51 | 92 | 1021.2 |
| 20260504194053 | 10 | 158 | 1.6 | 3.2 | 0.10 | 0.51 | 0.51 | 91 | 1021.2 |
| 20260504193552 | 10 | 158 | 1.6 | 1.6 | 0.05 | 0.48 | 0.48 | 91 | 1021.2 |
| 20260504193054 | 10 | 158 | 0.0 | 1.6 | 0.10 | 0.48 | 0.48 | 90 | 1021.1 |
| 20260504192553 | 10 | 158 | 0.0 | 3.2 | 0.05 | 0.46 | 0.46 | 90 | 1021.1 |
| 20260504192053 | 10 | 158 | 0.0 | 0.0 | 0.10 | 0.46 | 0.46 | 90 | 1021.0 |
| 20260504191553 | 10 | 158 | 0.0 | 0.0 | 0.10 | 0.46 | 0.46 | 89 | 1021.1 |
| 20260504191052 | 10 | 135 | 0.0 | 1.6 | 0.13 | 0.46 | 0.46 | 88 | 1020.9 |
| 20260504190554 | 10 | 135 | 0.0 | 1.6 | 0.15 | 0.46 | 0.46 | 87 | 1020.9 |
| 20260504190053 | 10 | 158 | 0.0 | 0.0 | 0.13 | 0.43 | 0.43 | 86 | 1020.8 |
| 20260504185553 | 10 | 158 | 0.0 | 1.6 | 0.15 | 0.43 | 0.43 | 86 | 1020.7 |
| 20260504185054 | 10 | 135 | 1.6 | 3.2 | 0.15 | 0.43 | 0.43 | 86 | 1020.8 |
| 20260504184554 | 10 | 135 | 3.2 | 4.8 | 0.18 | 0.43 | 0.43 | 87 | 1020.8 |
| 20260504184053 | 10 | 135 | 3.2 | 4.8 | 0.18 | 0.43 | 0.43 | 88 | 1020.8 |
| 20260504183552 | 10 | 135 | 1.6 | 4.8 | 0.20 | 0.43 | 0.43 | 88 | 1020.9 |
| 20260504183054 | 10 | 135 | 3.2 | 4.8 | 0.18 | 0.38 | 0.38 | 87 | 1020.9 |
| 20260504182554 | 11 | 135 | 3.2 | 4.8 | 0.18 | 0.38 | 0.38 | 86 | 1020.9 |
| 20260504182053 | 11 | 145 | 1.6 | 3.2 | 0.18 | 0.36 | 0.36 | 86 | 1020.9 |
| 20260504181554 | 11 | 144 | 1.6 | 3.2 | 0.20 | 0.36 | 0.36 | 86 | 1020.9 |
| 20260504181053 | 11 | 135 | 3.2 | 4.8 | 0.18 | 0.33 | 0.33 | 86 | 1021.0 |
| 20260504180554 | 11 | 135 | 1.6 | 3.2 | 0.18 | 0.30 | 0.30 | 87 | 1020.9 |
| 20260504180054 | 11 | 135 | 4.8 | 4.8 | 0.18 | 0.30 | 0.30 | 87 | 1021.0 |
| 20260504175553 | 11 | 135 | 3.2 | 4.8 | 0.18 | 0.28 | 0.28 | 88 | 1021.0 |
| 20260504175053 | 11 | 135 | 4.8 | 4.8 | 0.18 | 0.28 | 0.28 | 88 | 1021.0 |
| 20260504174553 | 11 | 135 | 3.2 | 4.8 | 0.15 | 0.23 | 0.23 | 87 | 1021.0 |
| 20260504174054 | 11 | 135 | 4.8 | 8.0 | 0.18 | 0.23 | 0.23 | 85 | 1021.0 |
| 20260504173553 | 11 | 135 | 8.0 | 9.7 | 0.15 | 0.20 | 0.20 | 84 | 1020.9 |
| 20260504173053 | 11 | 135 | 3.2 | 8.0 | 0.15 | 0.20 | 0.20 | 85 | 1020.9 |
| 20260504172554 | 11 | 135 | 3.2 | 8.0 | 0.15 | 0.20 | 0.20 | 86 | 1021.0 |
| 20260504172054 | 12 | 135 | 1.6 | 4.8 | 0.13 | 0.18 | 0.18 | 86 | 1020.9 |
| 20260504171554 | 12 | 135 | 3.2 | 4.8 | 0.10 | 0.15 | 0.15 | 85 | 1020.9 |
| 20260504171053 | 12 | 135 | 4.8 | 9.7 | 0.10 | 0.15 | 0.15 | 85 | 1020.9 |
| 20260504170553 | 12 | 135 | 3.2 | 4.8 | 0.05 | 0.13 | 0.13 | 84 | 1020.7 |